Location: Girdwood
(60.9430°N, 149.1660°W)
Time: 21:17:35
(UTC-09:00)

Iridium 86 - Visible Passes

Search period start: 28 January 2015 00:00
Search period end: 07 February 2015 00:00
Orbit: 776 x 779 km, 86.4° (Epoch: 28 January)

Date Brightness Start Highest point End Pass type
(mag) Time Alt. Az. Time Alt. Az. Time Alt. Az.
29 Jan 8.1 18:47:08 10° W 18:49:48 14° NW 18:52:20 10° NNW visible
30 Jan 7.9 18:12:00 10° W 18:15:42 19° NW 18:19:20 10° NNW visible
01 Feb 8.2 18:48:41 10° WNW 18:50:18 11° NW 18:51:46 10° NNW visible
02 Feb 8.0 18:12:59 10° W 18:16:08 15° NW 18:19:09 10° NNW visible
03 Feb 8.4 02:47:29 10° N 02:47:32 10° N 02:47:32 10° N visible
04 Feb 8.5 02:13:58 10° N 02:14:08 11° N 02:14:08 11° N visible
05 Feb 8.5 01:40:30 10° N 01:40:44 11° N 01:40:44 11° N visible
05 Feb 8.1 18:14:13 10° WNW 18:16:36 13° NW 18:18:49 10° NNW visible
06 Feb 8.5 01:07:06 10° N 01:07:20 11° N 01:07:20 11° N visible
06 Feb 8.3 02:47:36 10° N 02:47:49 11° N 02:47:49 11° N visible
